Location: Haulchin
(50.3172°N, 3.4360°E)
Time: 13:02:10
(UTC+00:00)

CZ-2C R/B - Pass Details

Date: 23 May 2024
Orbit: 784 x 868 km, 98.3° (Epoch: 16 June)

Event Time Altitude Azimuth Distance (km) Brightness Sun altitude
Exits shadow 00:47:46 - 133° (SE) 2,836 5.2 -17.6°
Reaches altitude 10° 00:49:06 10° 128° (SE) 2,340 4.8 -17.6°
Maximum altitude 00:53:44 35° 64° (ENE) 1,248 4.0 -17.3°
Drops below altitude 10° 00:58:25 10° 360° (N) 2,365 6.2 -17.1°
Sets 01:00:55 0° 352° (N) 3,306 6.9 -17.0°
